TimeEDT,TemperatureF,Dew PointF,Humidity,Sea Level PressureIn,VisibilityMPH,Wind Direction,Wind SpeedMPH,Gust SpeedMPH,PrecipitationIn,Events,Conditions,WindDirDegrees,DateUTC
12:15 AM,66.2,55.4,68,29.93,10.0,West,8.1,18.4,N/A,,Scattered Clouds,270,2012-03-29 04:15:00
12:35 AM,66.2,53.6,64,29.93,10.0,WNW,11.5,20.7,N/A,,Scattered Clouds,290,2012-03-29 04:35:00
12:55 AM,66.2,53.6,64,29.93,10.0,WNW,9.2,16.1,N/A,,Scattered Clouds,290,2012-03-29 04:55:00
1:15 AM,64.4,51.8,64,29.93,10.0,West,8.1,-,N/A,,Clear,280,2012-03-29 05:15:00
1:35 AM,64.4,51.8,64,29.92,10.0,WNW,5.8,-,N/A,,Clear,290,2012-03-29 05:35:00
1:55 AM,64.4,51.8,64,29.92,10.0,West,6.9,16.1,N/A,,Clear,280,2012-03-29 05:55:00
2:15 AM,64.4,51.8,64,29.92,10.0,WNW,9.2,17.3,N/A,,Clear,290,2012-03-29 06:15:00
2:35 AM,64.4,51.8,64,29.92,10.0,WNW,5.8,-,N/A,,Clear,290,2012-03-29 06:35:00
2:55 AM,62.6,50.0,63,29.92,10.0,WNW,6.9,19.6,N/A,,Clear,290,2012-03-29 06:55:00
3:15 AM,62.6,48.2,59,29.91,10.0,WNW,8.1,18.4,N/A,,Clear,290,2012-03-29 07:15:00
3:35 AM,62.6,48.2,59,29.91,10.0,WNW,8.1,18.4,N/A,,Clear,290,2012-03-29 07:35:00
3:55 AM,62.6,46.4,55,29.91,10.0,WNW,10.4,19.6,N/A,,Clear,290,2012-03-29 07:55:00
4:15 AM,60.8,46.4,59,29.91,10.0,WNW,8.1,16.1,N/A,,Clear,290,2012-03-29 08:15:00
4:35 AM,60.8,44.6,55,29.91,10.0,WNW,10.4,18.4,N/A,,Clear,290,2012-03-29 08:35:00
4:55 AM,60.8,44.6,55,29.91,10.0,West,8.1,16.1,N/A,,Clear,280,2012-03-29 08:55:00
5:15 AM,60.8,44.6,55,29.91,10.0,WNW,13.8,18.4,N/A,,Clear,290,2012-03-29 09:15:00
5:35 AM,59.0,44.6,59,29.91,10.0,WNW,9.2,17.3,N/A,,Clear,290,2012-03-29 09:35:00
5:55 AM,59.0,41.0,51,29.91,10.0,West,8.1,20.7,N/A,,Clear,270,2012-03-29 09:55:00
6:15 AM,57.2,42.8,59,29.92,10.0,West,5.8,16.1,N/A,,Clear,260,2012-03-29 10:15:00
6:35 AM,57.2,44.6,63,29.92,10.0,West,6.9,-,N/A,,Clear,270,2012-03-29 10:35:00
6:55 AM,57.2,42.8,59,29.93,10.0,WNW,5.8,-,N/A,,Clear,290,2012-03-29 10:55:00
7:15 AM,57.2,42.8,59,29.93,10.0,West,9.2,17.3,N/A,,Clear,280,2012-03-29 11:15:00
7:35 AM,57.2,41.0,55,29.94,10.0,West,6.9,-,N/A,,Clear,280,2012-03-29 11:35:00
7:55 AM,57.2,41.0,55,29.95,10.0,WNW,6.9,-,N/A,,Clear,290,2012-03-29 11:55:00
8:15 AM,57.2,41.0,55,29.96,10.0,WNW,10.4,17.3,N/A,,Clear,290,2012-03-29 12:15:00
8:35 AM,57.2,41.0,55,29.96,10.0,West,9.2,18.4,N/A,,Clear,280,2012-03-29 12:35:00
8:55 AM,57.2,41.0,55,29.97,10.0,West,11.5,19.6,N/A,,Clear,270,2012-03-29 12:55:00
9:15 AM,59.0,42.8,55,29.96,10.0,West,10.4,19.6,N/A,,Clear,270,2012-03-29 13:15:00
9:35 AM,59.0,42.8,55,29.96,10.0,West,10.4,21.9,N/A,,Clear,270,2012-03-29 13:35:00
9:55 AM,60.8,42.8,52,29.97,10.0,West,10.4,18.4,N/A,,Clear,270,2012-03-29 13:55:00
10:15 AM,60.8,42.8,52,29.98,10.0,WNW,10.4,21.9,N/A,,Clear,290,2012-03-29 14:15:00
10:35 AM,60.8,42.8,52,29.98,10.0,WNW,10.4,19.6,N/A,,Clear,300,2012-03-29 14:35:00
11:35 AM,62.6,42.8,48,29.99,10.0,WNW,17.3,25.3,N/A,,Clear,300,2012-03-29 15:35:00
11:55 AM,64.4,42.8,45,29.99,10.0,WNW,15.0,25.3,N/A,,Clear,290,2012-03-29 15:55:00
12:15 PM,66.2,42.8,43,29.99,10.0,WNW,11.5,19.6,N/A,,Clear,300,2012-03-29 16:15:00
12:35 PM,66.2,42.8,43,29.98,10.0,WNW,10.4,18.4,N/A,,Clear,300,2012-03-29 16:35:00
12:55 PM,66.2,42.8,43,29.98,10.0,WNW,8.1,24.2,N/A,,Clear,300,2012-03-29 16:55:00
1:15 PM,68.0,39.2,35,29.98,10.0,WNW,12.7,19.6,N/A,,Clear,290,2012-03-29 17:15:00
1:35 PM,68.0,39.2,35,29.98,10.0,WNW,17.3,23.0,N/A,,Clear,290,2012-03-29 17:35:00
1:55 PM,69.8,39.2,33,29.98,10.0,West,12.7,25.3,N/A,,Clear,280,2012-03-29 17:55:00
2:15 PM,69.8,37.4,31,29.97,10.0,WNW,17.3,25.3,N/A,,Clear,300,2012-03-29 18:15:00
2:35 PM,69.8,37.4,31,29.97,10.0,West,15.0,27.6,N/A,,Clear,280,2012-03-29 18:35:00
2:55 PM,71.6,39.2,31,29.97,10.0,NW,11.5,18.4,N/A,,Clear,310,2012-03-29 18:55:00
3:15 PM,69.8,39.2,33,29.96,10.0,NW,15.0,25.3,N/A,,Clear,310,2012-03-29 19:15:00
3:35 PM,71.6,39.2,31,29.96,10.0,NW,13.8,23.0,N/A,,Clear,320,2012-03-29 19:35:00
3:55 PM,71.6,37.4,29,29.96,10.0,NW,12.7,24.2,N/A,,Clear,310,2012-03-29 19:55:00
4:15 PM,71.6,37.4,29,29.96,10.0,WNW,8.1,18.4,N/A,,Clear,290,2012-03-29 20:15:00
4:35 PM,71.6,39.2,31,29.96,10.0,WNW,9.2,20.7,N/A,,Clear,300,2012-03-29 20:35:00
4:55 PM,71.6,39.2,31,29.96,10.0,NW,15.0,19.6,N/A,,Clear,320,2012-03-29 20:55:00
5:15 PM,71.6,37.4,29,29.95,10.0,NW,10.4,16.1,N/A,,Clear,320,2012-03-29 21:15:00
5:35 PM,71.6,37.4,29,29.95,10.0,WNW,9.2,-,N/A,,Clear,300,2012-03-29 21:35:00
5:55 PM,69.8,39.2,33,29.95,10.0,NW,9.2,-,N/A,,Clear,310,2012-03-29 21:55:00
6:15 PM,69.8,37.4,31,29.96,10.0,NW,9.2,-,N/A,,Clear,310,2012-03-29 22:15:00
6:35 PM,69.8,39.2,33,29.97,10.0,NW,9.2,-,N/A,,Clear,310,2012-03-29 22:35:00
6:55 PM,68.0,37.4,33,29.97,10.0,NW,6.9,-,N/A,,Clear,310,2012-03-29 22:55:00
7:35 PM,64.4,37.4,37,29.98,10.0,WNW,3.5,-,N/A,,Clear,290,2012-03-29 23:35:00
7:55 PM,62.6,37.4,39,29.99,10.0,WNW,3.5,-,N/A,,Clear,290,2012-03-29 23:55:00
8:15 PM,59.0,37.4,45,29.99,10.0,Calm,Calm,-,N/A,,Clear,0,2012-03-30 00:15:00
8:35 PM,59.0,37.4,45,30.00,10.0,Calm,Calm,-,N/A,,Clear,0,2012-03-30 00:35:00
8:55 PM,57.2,37.4,48,30.01,10.0,North,3.5,-,N/A,,Clear,350,2012-03-30 00:55:00
9:15 PM,57.2,37.4,48,30.02,10.0,NNW,3.5,-,N/A,,Clear,340,2012-03-30 01:15:00
9:35 PM,55.4,37.4,51,30.02,10.0,Calm,Calm,-,N/A,,Clear,0,2012-03-30 01:35:00
9:55 PM,53.6,39.2,58,30.03,10.0,Calm,Calm,-,N/A,,Clear,0,2012-03-30 01:55:00
10:15 PM,53.6,39.2,58,30.03,10.0,NNW,4.6,-,N/A,,Clear,330,2012-03-30 02:15:00
10:35 PM,53.6,37.4,54,30.03,10.0,North,3.5,-,N/A,,Clear,350,2012-03-30 02:35:00
10:55 PM,53.6,39.2,58,30.02,10.0,Calm,Calm,-,N/A,,Clear,0,2012-03-30 02:55:00
11:15 PM,51.8,37.4,58,30.03,10.0,Calm,Calm,-,N/A,,Clear,0,2012-03-30 03:15:00
11:35 PM,53.6,37.4,54,30.03,10.0,Calm,Calm,-,N/A,,Clear,0,2012-03-30 03:35:00
11:55 PM,50.0,37.4,62,30.03,10.0,Calm,Calm,-,N/A,,Clear,0,2012-03-30 03:55:00